Location: Clarion
(42.7316°N, 93.7330°W)
Time: 09:20:24
(UTC+00:00)

COSMOS 2441 - Pass Details

Date: 22 April 2026
Orbit: 703 x 727 km, 98.3° (Epoch: 16 May)

Event Time Altitude Azimuth Distance (km) Brightness Sun altitude
Rises 08:29:19 0° 14° (NNE) 3,108 8.7 -26.8°
Reaches altitude 10° 08:31:36 10° 16° (NNE) 2,183 7.7 -26.6°
Maximum altitude 08:36:23 79° 102° (ESE) 721 4.3 -26.0°
Enters shadow 08:36:24 79° 104° (ESE) 721 4.3 -26.0°
